Location: Bishop's University Astronomical Observatory
(45.3661°N, 71.8475°W)
Time: 16:58:06
(UTC-04:00)

CZ-4C R/B - Visible Passes

Search period start: 26 March 2017 00:00
Search period end: 05 April 2017 00:00
Orbit: 721 x 1281 km, 63.4° (Epoch: 25 March)

Date Brightness Start Highest point End Pass type
(mag) Time Alt. Az. Time Alt. Az. Time Alt. Az.
26 Mar 4.4 00:44:45 23° N 00:44:45 23° N 00:48:19 10° NNE visible
26 Mar 4.9 02:30:18 10° NW 02:33:56 16° N 02:37:50 10° NNE visible
26 Mar 4.9 04:19:58 10° NNW 04:25:06 23° NNE 04:30:43 10° ENE visible
26 Mar 4.3 23:31:18 21° NNE 23:31:18 21° NNE 23:33:23 10° NNE visible
27 Mar 4.6 01:16:25 18° NNW 01:17:30 19° NNW 01:21:59 10° NNE visible
27 Mar 5.0 03:04:44 10° NNW 03:08:44 17° N 03:13:02 10° NE visible
27 Mar 4.4 04:53:25 10° NNW 04:59:29 33° NE 05:06:12 10° E visible
27 Mar 4.5 22:17:38 13° NE 22:17:38 13° NE 22:18:18 10° NE visible
28 Mar 4.1 00:02:44 27° N 00:02:44 27° N 00:06:54 10° NNE visible
28 Mar 5.0 01:48:32 10° NW 01:52:12 16° N 01:56:09 10° NNE visible
28 Mar 4.9 03:38:33 10° NNW 03:43:26 21° NNE 03:48:44 10° ENE visible
28 Mar 3.7 05:26:48 10° NNW 05:33:34 52° NE 05:41:07 10° ESE visible
28 Mar 3.6 22:48:37 31° NNE 22:48:37 31° NNE 22:51:58 10° NE visible
29 Mar 4.6 00:33:39 17° NW 00:35:49 20° NNW 00:40:31 10° NNE visible
29 Mar 5.1 02:23:10 10° NNW 02:26:59 16° N 02:31:07 10° NE visible
29 Mar 4.6 04:12:02 10° NNW 04:17:53 30° NNE 04:24:20 10° E visible
29 Mar 3.0 06:00:15 10° NW 06:07:21 87° NE 06:15:15 10° SE visible
29 Mar 3.0 21:25:52 10° SSW 21:33:11 35° ENE 21:36:48 10° NE visible
29 Mar 3.7 23:17:57 27° WNW 23:19:49 34° NW 23:25:29 10° NNE visible
30 Mar 5.0 01:06:44 10° NW 01:10:28 16° N 01:14:30 10° NNE visible
30 Mar 5.0 02:57:07 10° NNW 03:01:44 19° NNE 03:06:45 10° ENE visible
30 Mar 3.9 04:45:25 10° NNW 04:52:03 46° NE 04:59:25 10° ESE visible
30 Mar 3.3 20:13:03 10° SSE 20:16:44 19° ESE 20:20:42 10° ENE visible
30 Mar 2.3 21:59:06 10° SW 22:04:25 72° NW 22:10:33 10° NE visible
30 Mar 4.5 23:49:42 10° WNW 23:54:08 22° NNW 23:59:03 10° NNE visible
31 Mar 5.1 01:41:32 10° NNW 01:45:15 16° N 01:49:15 10° NE visible
31 Mar 4.7 03:30:39 10° NNW 03:36:15 27° NNE 03:42:26 10° E visible
31 Mar 3.1 05:18:51 10° NW 05:25:54 77° NE 05:33:46 10° SE visible
31 Mar 2.4 20:44:42 10° S 20:49:40 44° ESE 20:55:16 10° NE visible
31 Mar 3.5 22:33:10 10° WSW 22:38:16 38° NW 22:44:05 10° NNE visible
01 Apr 4.9 00:24:54 10° NW 00:28:45 17° NNW 00:32:55 10° NNE visible
01 Apr 5.1 02:15:39 10° NNW 02:20:01 18° NNE 02:24:46 10° ENE visible
01 Apr 4.1 04:04:02 10° NNW 04:10:29 41° NE 04:17:40 10° ESE visible
01 Apr 3.0 05:52:27 10° NW 05:59:29 62° WSW 06:07:14 10° SSE visible
01 Apr 2.2 21:17:40 10° SW 21:22:59 85° NW 21:29:06 10° NE visible
01 Apr 4.4 23:07:54 10° W 23:12:30 24° NNW 23:17:37 10° NNE visible
02 Apr 5.1 00:59:51 10° NW 01:03:31 16° N 01:07:26 10° NE visible
02 Apr 4.8 02:49:16 10° NNW 02:54:37 24° NNE 03:00:29 10° E visible
02 Apr 3.2 04:37:27 10° NW 04:44:26 67° NE 04:52:13 10° SE visible
02 Apr 2.7 20:03:37 10° S 20:08:23 36° ESE 20:13:41 10° NE visible
02 Apr 3.3 21:51:32 10° WSW 21:56:44 44° NW 22:02:41 10° NNE visible
02 Apr 4.9 23:43:03 10° WNW 23:47:02 18° NNW 23:51:22 10° NNE visible
03 Apr 5.1 01:34:08 10° NNW 01:38:18 17° NNE 01:42:47 10° NE visible
03 Apr 4.2 03:22:41 10° NNW 03:28:56 36° NE 03:35:52 10° ESE visible
03 Apr 2.9 05:11:00 10° NW 05:18:05 72° WSW 05:25:56 10° SSE visible
03 Apr 2.1 20:36:18 10° SSW 20:41:35 80° SE 20:47:39 10° NE visible
03 Apr 4.3 22:26:07 10° W 22:30:53 27° NNW 22:36:11 10° NNE visible
04 Apr 5.1 00:18:08 10° NW 00:21:46 16° N 00:25:42 10° NNE visible
04 Apr 4.9 02:07:51 10° NNW 02:12:57 22° NNE 02:18:31 10° ENE visible
04 Apr 3.4 03:56:04 10° NNW 04:02:57 59° NE 04:10:37 10° SE visible
04 Apr 3.4 05:44:52 10° NW 05:51:29 39° WSW 05:58:39 10° S visible
04 Apr 3.1 21:09:57 10° WSW 21:15:13 52° NW 21:21:16 10° NNE visible
04 Apr 4.8 23:01:12 10° WNW 23:05:20 19° NNW 23:09:52 10° NNE visible
